Find Starlink 30349

NORAD ID: 57713 Int'l Des: 2023-129 Owner: SPXS Country: US Constellation: starlink operational
LEOCIRCULAR

Current View

Loading 3D Globe...

About Starlink 30349

Starlink 30349 (NORAD 57713) is a starlink constellation satellite (v2 mini) launched Aug 27, 2023 by SPXS of US. It operates in LEO, CIRCULAR orbit with a mass of 730.00 kg.

About Starlink 30349

Description loading...

Upcoming Passes

Passes for default location (London). Set your location on the main map for personalized predictions.

Altitude History

Loading altitude history...

Two-Line Element Set

1 57713U 23129R 26170.71441914 .00001157 00000-0 51584-4 0 9998
2 57713 43.0073 261.9120 0002742 258.4805 101.5739 15.27579131156144
Epoch: Jun 19, 2026 • Age: 51 hours

Current Status

Altitude 491.6 km
Velocity 7.62 km/s
Sub-Earth Point -35.32°S, 97.1°W
Launch Date Aug 27, 2023
Age 2.8 years
Type internet

Technical Details

Classification Payload
Mass 730.00 kg
Dry Mass 700.00 kg
Total Mass 730.00 kg
Length 0.30 m
Diameter 4.10 m
Span 29.00 m
Shape Box + pan
Manufacturer SPXS
Bus Type Starlink V2M
Phase Status In Orbit
Owner/State SPXS/US

Most Searched